Regional Weather Roundup
Issued by NWS Upton, NY

Current Version | Previous Version | Text Only | Print | Product List | Glossary On
Versions: 1 2 3 4 5 6 7 8 9 10 11 12 13 14 15 16 17 18 19 20 21 22 23 24 25 26 27 28
000 ASUS41 KOKX 201209 RWROKX REGIONAL WEATHER ROUNDUP NATIONAL WEATHER SERVICE NEW YORK NY 800 AM EDT FRI OCT 20 2017 NOTE: "FAIR" INDICATES FEW OR NO CLOUDS BELOW 12,000 FEET WITH NO SIGNIFICANT WEATHER AND/OR OBSTRUCTIONS TO VISIBILITY. NYZ071-072-176-178-NJZ106-104-201300- NEW YORK CITY METRO AREA CITY SKY/WX TMP DP RH WIND PRES REMARKS Central Park FAIR 58 46 64 W7 30.17R Bronx Bot Gard N/A 57 43 58 W5 30.15S LaGuardia APRT MOCLDY 62 45 53 NW9 30.14R Kennedy INTL FAIR 59 50 72 W10 30.15R Breezy Point N/A 59 N/A N/A W8 N/A Newark/Liberty FAIR 57 47 69 SW6 30.16R Teterboro FAIR 52 47 83 CALM 30.14R $$ NYZ177-179-078>081-201300- LONG ISLAND NEW YORK CITY SKY/WX TMP DP RH WIND PRES REMARKS Jones Beach N/A 59 N/A N/A W13 N/A Matinecock PT N/A 61 N/A N/A W14 N/A Farmingdale FAIR 59 47 64 NW8 30.13R MacArthur/ISP FAIR 57 49 74 NW8 30.12R Shirley FAIR 57 50 77 N5 30.12R Mt Sinai Harb N/A N/A N/A N/A NW7G13 N/A Westhampton FAIR 52 48 86 W5 30.12R East Hampton FAIR 57 50 77 CALM 30.09R Montauk N/A 62 50 64 NW9 30.10R $$ NYZ052-065-067-201300- HUDSON VALLEY CITY SKY/WX TMP DP RH WIND PRES REMARKS White Plains FAIR 54 45 71 NW3 30.13R Larchmont Harb N/A 59 N/A N/A W8 N/A Croton On Huds N/A 55 N/A N/A NE1 N/A Newburgh CLEAR 48 45 87 CALM 30.14R Montgomery FAIR 53 41 63 W10 30.14R Poughkeepsie FAIR 43 41 93 CALM 30.12R Albany FAIR 50 41 71 CALM 30.14R $$ NJZ001-105-106-008-010-013-015-019>022-104-201300- NEW JERSEY CITY SKY/WX TMP DP RH WIND PRES REMARKS Newark/Liberty FAIR 57 47 69 SW6 30.16R Teterboro FAIR 52 47 83 CALM 30.14R Caldwell FAIR 51 48 89 MISG 30.16R Somerville FAIR 41 40 96 CALM 30.16R Linden FAIR 56 46 68 NW6 30.16R Perth Amboy N/A 54 N/A N/A W5 N/A Sussex FAIR 41 41 100 CALM 30.17R Andover N/A 43 43 100 CALM 30.18R Trenton FAIR 52 47 83 NW5 30.18R Millville FAIR 53 51 93 W7 30.18R Atlantic City NOT AVBL Wrightstown FAIR 55 48 76 NW7 30.15R Toms River N/A 55 48 77 NW7 30.17R Belmar FAIR 53 48 83 NW6 30.18R $$ PAZ047>061-062-071-201300- EASTERN PENNSYLVANIA CITY SKY/WX TMP DP RH WIND PRES REMARKS Philadelphia MOCLDY 58 46 64 NW8 30.19R Allentown FAIR 48 43 82 CALM 30.19R Scranton FAIR 46 44 93 CALM 30.19R $$ CTZ002-004>006-009-010-012-RIZ004-006-007-MAZ004-011-015-201300- SOUTHERN NEW ENGLAND IN CT CITY SKY/WX TMP DP RH WIND PRES REMARKS Bradley INTL FAIR 55 40 56 W3 30.10R Hartford FAIR 57 44 62 W9 30.10R Danbury FAIR 45 43 93 CALM 30.14R Wtrbury/Oxford FAIR 51 45 79 W3 30.13R Norwalk Harbor N/A 54 N/A N/A W7 N/A Bridgeport FAIR 55 47 74 NW7 30.12R Meriden FAIR 53 45 74 W7 30.10R New Haven FAIR 57 47 69 NW9 30.11R Chester FAIR 55 46 71 CALM 30.10R Groton FAIR 58 44 60 NW12 30.08R Wilimantic FAIR 46 43 89 MISG 30.09R IN RI CITY SKY/WX TMP DP RH WIND PRES REMARKS Providence MOCLDY 56 46 69 W7 30.06R Block Island FAIR 60 46 59 NW10G22 30.08R Westerly FAIR 57 45 64 VRB5 30.08R IN MA CITY SKY/WX TMP DP RH WIND PRES REMARKS Boston FAIR 60 46 59 W10 30.04R Worcester FAIR 52 41 66 W8 30.06R Westfield FAIR 49 45 86 VRB5 30.08R Provincetown FAIR 58 51 78 W12 30.02R Nantucket FAIR 60 53 77 NW9 30.02R $$ ANZ330-335-338-340-345-350-353-355-201300- COASTAL MARINE OBSERVATIONS STATION/POSITION TIME SKY/WX TEMP WIND PRES VSBY WAVE AIR SEA DIR/SP/G HT/PER (UTC) (F) (DEG/KT/KT) (MB) (MI) (FT/S) NY HARB ENTRANCE 1150 63 65 300/ 17/ 19 1019.5 3/ 9 20 S FIRE ISLAND 1050 64 64 300/ 16/ 19 1018.8 4/ 5 GREAT SOUTH BAY 1100 59 61 290/ 10/ 14 N/A 15 E BARNEGAT LI NOT AVBL HUDSON CANYON 1150 65 65 300/ 14/ 16 1019.4 4/ 9 KINGS POINT 1130 61 64 340/ 12/ 14 1020.8 EXECUTION ROCKS 1130 62 270/ 12/ 16 N/A WESTERN LI SOUND 1049 61 290/ 12/ 14 N/A 1 CENTRAL LI SOUND NOT AVBL EASTERN LI SOUND NOT AVBL ROBBINS REEF 1124 60 260/ 8/ 10 1021.1 $$ >>>>>>>>>>>>>>>>>>>>>>>>>>>> KEY <<<<<<<<<<<<<<<<<<<<<<<<<<< > < > SKY/WX - Sky Condition/Present Weather < > TMP - Temperature in Fahrenheit < > DP - Dew Point in Fahrenheit < > RH - Relative Humidity in Percent < > WIND - Direction (from) and Speed in MPH < > PRES - Mean Sea Level Pressure (inches of Hg) < > WCI - Wind Chill Index < > VSB - VISIBILITY IN MILES < > HX - HEAT INDEX < > TC - TEMPERATURE IN CELSIUS < > VRB - VARIABLE WIND DIRECTION < > < >>>>>>>>>>>>>>>>>>>>>>>>>>>> KEY <<<<<<<<<<<<<<<<<<<<<<<<<<<

USA.gov is the U.S. government's official web portal to all federal, state and local government web resources and services.